Simultaneous Nadir Overpasses (SNOs) Predictions

Prediction of SNOs between GOES-16 and AQUA Satellite Orbit:

Table of predicted SNOs for the next 14.0 days since TLE Epoch: 4/8/2022
Index Date Time (GOES-16) GOES-16 Lat,Lon AQUA Lat,Lon Distance(km) Time Diff (sec)
1 04/10/2022 06:20:50 -0.05, -75.21 -0.88, -71.31 443.09 80
2 04/10/2022 18:44:52 0.04, -75.21 -0.20, -76.50 145.71 80
3 04/12/2022 18:29:49 0.04, -75.22 0.40, -73.48 197.51 80
4 04/13/2022 06:53:41 -0.03, -75.23 0.72, -78.62 386.28 80
5 04/15/2022 06:41:19 -0.03, -75.24 0.03, -75.62 42.29 80
6 04/17/2022 06:26:16 -0.04, -75.26 -0.62, -72.61 302.19 80
7 04/17/2022 18:50:17 0.03, -75.26 -0.50, -77.78 286.27 80
8 04/19/2022 18:37:53 0.03, -75.28 0.12, -74.76 58.60 80
9 04/21/2022 18:22:49 0.03, -75.30 0.76, -71.75 403.66 80
10 04/22/2022 06:46:42 -0.03, -75.31 0.28, -76.90 179.60 80
